Location: Brompton
(51.4000°N, 0.5333°E)
Time: 15:02:39
(UTC+00:00)

Cosmos 2184 Rocket - Pass Details

Date: 11 May 2021
Orbit: 958 x 1003 km, 82.9° (Epoch: 23 June)

Event Time Altitude Azimuth Distance (km) Brightness Sun altitude
Rises 21:03:32 0° 351° (N) 3,692 8.1 -11.1°
Reaches altitude 10° 21:06:06 10° 354° (N) 2,734 7.3 -11.4°
Maximum altitude 21:12:19 67° 77° (ENE) 1,050 4.1 -12.0°
Enters shadow 21:17:25 15° 158° (SSE) 2,318 5.4 -12.5°
